Williston, ND

11:16 AM CST on February 20, 2017 (GMT -0600)
Sloulin International

Weather History for KISN - January, 2014

Change the Weather History Date:

Friday, January 10, 2014

  Actual Average Record
Temperature  
Mean Temperature 24 °F 10 °F  
Max Temperature 33 °F 21 °F 49 °F (1992)
Min Temperature 14 °F 1 °F -35 °F (1982)
Degree Days  
Heating Degree Days 41 55  
Month to date heating degree days 601 547  
Since 1 July heating degree days 4450 4294  
Cooling Degree Days 0 0  
Month to date cooling degree days 0 0  
Year to date cooling degree days 0 0  
Moisture  
Dew Point 18 °F    
Average Humidity 72    
Maximum Humidity 84    
Minimum Humidity 59    
Precipitation  
Precipitation 0.00 in 0.03 in 0.17 in (1989)
Month to date precipitation 0.14 0.22  
Year to date precipitation 0.14 0.22  
Sea Level Pressure  
Sea Level Pressure 29.57 in    
Wind  
Wind Speed 9 mph (WSW)    
Max Wind Speed 21 mph    
Max Gust Speed 25 mph    
Visibility 10 miles    
Events      
T = Trace of Precipitation, MM = Missing Value Source: NWS Daily Summary

Daily Weather History Graph

Daily Weather History Graph

Search for Another Location

Airport or City:

Trip Planner

Search our weather history database for the weather conditions in past years. The results will help you decide how hot, cold, wet, or windy it might be!

Date:

Astronomy

Jan. 10, 2014 Rise Set
Actual Time 8:42 AM CST 5:21 PM CST
Civil Twilight 8:07 AM CST 5:57 PM CST
Nautical Twilight 7:28 AM CST 6:36 PM CST
Astronomical Twilight 6:50 AM CST 7:14 PM CST
Moon 1:33 PM CST (1/10) 3:45 AM CST (1/10)
Length of Visible Light 9h 50m
Length of Day
8h 38m
Waxing Gibbous, 75% of the Moon is Illuminated
Jan 10
Waxing Gibbous
Jan 15
Full
Jan 23
Last Quarter
Jan 30
New
Feb 6
First Quarter

Hourly Weather History & Observations

Time (CST) Temp. Windchill Dew Point Humidity Pressure Visibility Wind Dir Wind Speed Gust Speed Precip Events Conditions
12:52 AM 30.0 °F 21.1 °F 24.1 °F 79% 29.47 in 10.0 mi SW 10.4 mph - N/A   Scattered Clouds
1:52 AM 32.0 °F 21.2 °F 24.1 °F 73% 29.53 in 10.0 mi WSW 16.1 mph - N/A   Clear
2:52 AM 32.0 °F 20.8 °F 21.9 °F 66% 29.53 in 10.0 mi West 17.3 mph - N/A   Clear
3:52 AM 30.9 °F 20.7 °F 19.9 °F 64% 29.53 in 10.0 mi West 13.8 mph 25.3 mph N/A   Clear
4:52 AM 26.1 °F 21.9 °F 18.0 °F 71% 29.55 in 10.0 mi Variable 3.5 mph - N/A   Clear
5:52 AM 28.0 °F 17.0 °F 19.0 °F 69% 29.52 in 10.0 mi West 13.8 mph - N/A   Clear
6:52 AM 27.0 °F 15.6 °F 18.0 °F 69% 29.52 in 10.0 mi West 13.8 mph - N/A   Overcast
7:52 AM 27.0 °F 15.2 °F 17.1 °F 66% 29.52 in 10.0 mi West 15.0 mph - N/A   Mostly Cloudy
8:52 AM 25.0 °F 12.2 °F 16.0 °F 69% 29.52 in 10.0 mi West 16.1 mph - N/A   Clear
9:52 AM 27.0 °F 14.3 °F 17.1 °F 66% 29.52 in 10.0 mi WSW 17.3 mph - N/A   Mostly Cloudy
10:52 AM 28.0 °F 16.1 °F 17.1 °F 63% 29.53 in 10.0 mi WSW 16.1 mph - N/A   Scattered Clouds
11:52 AM 28.0 °F 16.5 °F 17.1 °F 63% 29.54 in 10.0 mi WSW 15.0 mph 24.2 mph N/A   Clear
12:52 PM 30.0 °F 22.4 °F 19.0 °F 64% 29.53 in 10.0 mi SW 8.1 mph - N/A   Overcast
1:52 PM 30.9 °F 25.2 °F 19.0 °F 61% 29.52 in 10.0 mi West 5.8 mph - N/A   Clear
2:52 PM 32.0 °F 25.6 °F 19.0 °F 59% 29.52 in 10.0 mi WSW 6.9 mph - N/A   Mostly Cloudy
3:52 PM 32.0 °F 26.4 °F 19.9 °F 61% 29.53 in 10.0 mi WSW 5.8 mph - N/A   Overcast
4:52 PM 26.1 °F 18.4 °F 18.0 °F 71% 29.57 in 10.0 mi West 6.9 mph - N/A   Clear
5:52 PM 21.0 °F 14.6 °F 15.1 °F 78% 29.59 in 10.0 mi West 4.6 mph - N/A   Scattered Clouds
6:52 PM 21.9 °F - 16.0 °F 78% 29.62 in 10.0 mi Calm Calm - N/A   Mostly Cloudy
7:52 PM 15.1 °F 9.4 °F 10.9 °F 84% 29.65 in 10.0 mi West 3.5 mph - N/A   Clear
8:52 PM 18.0 °F 9.8 °F 14.0 °F 84% 29.66 in 10.0 mi WSW 5.8 mph - N/A   Mostly Cloudy
9:52 PM 23.0 °F - 17.1 °F 78% 29.67 in 10.0 mi Calm Calm - N/A   Overcast
10:52 PM 21.9 °F 15.7 °F 16.0 °F 78% 29.70 in 10.0 mi SSW 4.6 mph - N/A   Overcast
11:52 PM 21.0 °F 12.4 °F 16.0 °F 81% 29.72 in 10.0 mi SSW 6.9 mph - N/A   Clear